sat.trackr.live / text

‹ back to catalog

STARLINK-3830

NORAD 52363 · 2022-045AJ

PAYLOAD ACTIVE UNKNOWN

§ Identity

Operator
Country
US
Launch date
2022-04-29
Launch site
AFETR
Launch vehicle
Mass (kg)
RCS (m²)

Purposes: comms

External: N2YO · Heavens-Above · Gunter

§ Orbital elements

Epoch: 2026-05-25T04:10:44.711904Z

Period
95.44 min
Inclination
53.2121°
Eccentricity
0.0000982
Mean motion
15.08838477 rev/d
Perigee alt
539.1 km
Apogee alt
540.4 km
Semi-major
6,917.9 km
B*
9.5625e-5
RAAN
215.7714°
Arg perigee
86.3446°
Mean anomaly
273.7658°
Rev number
22,733

§ Raw data

STARLINK-38301 52363U 22045AJ  26145.17412861  .00001234  00000+0  95625-4 0  99902 52363  53.2121 215.7714 0000982  86.3446 273.7658 15.08838477227338

JSON: /api/v1/satellites/52363 · /tle

For live sub-satellite position, see the globe view (requires WebGL).

§ Visibility from observer

Set your observer location to see the next 7 days of passes ≥ 10°. The values pass through the URL so the page stays shareable.

No JS? Fill the form by hand. The geolocation button needs JavaScript.